Temperature
20 21 20 20 20 20 20 20 20 20 20 20 20 19 20 19 20 20 20 20 20 20 20 20 20 19 19 19 19 19 19 19 19 19 19 19 19 19 19 19 19 18 18
21 21 20 20 20 20 20 20 20 20 20 20 19 19 19 19 19 20 20 20 19 19 19 19 19 19 19 19 19 19 19 19 19 19 19 19 19 19 19 19 19 19 19
20 21 20 20 20 20 20 20 20 20 20 20 19 19 19 19 19 19 19 19 19 19 19 19 19 19 19 19 19 19 19 19 19 19 18 18 19 19 19 19 19 19 19
20 21 21 20 20 20 20 20 20 20 19 19 19 19 19 19 19 19 19 19 19 19 19 19 19 19 19 19 19 19 19 19 19 18 18 18 19 19 19 19 19 19 19
20 20 21 20 20 20 20 20 20 19 19 19 19 19 19 19 19 19 19 19 19 19 18 18 18 18 18 19 19 19 19 19 19 18 18 19 19 19 19 19 19 19 19
20 20 21 20 20 20 20 20 19 19 19 19 19 19 19 19 19 19 19 19 19 19 18 18 18 18 18 18 19 19 19 19 19 19 19 19 19 19 19 19 19 19 19
20 20 21 20 20 20 20 20 19 19 19 19 19 19 19 19 19 19 19 19 19 19 18 18 18 18 18 18 19 19 19 19 19 19 19 19 19 19 19 19 19 19 19
20 20 21 20 20 20 19 19 19 19 19 19 19 19 19 19 19 19 19 19 19 19 18 18 18 18 18 18 18 19 19 18 18 18 19 19 19 19 19 19 19 19 18
20 20 20 20 20 20 19 19 19 19 19 19 19 19 19 19 19 18 18 18 19 19 18 18 18 18 18 18 18 19 19 18 18 18 18 18 18 19 19 19 18 18 18
21 20 20 20 20 20 20 19 19 19 19 19 19 19 19 18 18 18 18 18 19 19 18 18 18 18 18 18 19 19 19 18 18 18 18 18 18 18 18 18 18 18 18
22 21 20 19 19 19 19 19 19 19 19 19 19 19 18 18 18 18 18 18 19 19 19 18 18 18 19 19 19 19 19 19 18 18 18 18 18 18 18 18 18 18 18
22 21 21 20 19 19 19 19 19 19 19 19 19 19 18 18 17 17 17 18 19 19 19 19 19 19 19 19 19 19 19 19 19 18 18 18 18 18 18 18 18 18 18
23 22 21 21 20 19 19 19 19 19 19 18 18 18 18 18 18 18 18 19 19 19 19 19 19 19 19 18 19 19 19 19 19 18 18 18 18 18 18 18 18 18 18
23 23 22 21 20 20 19 19 19 19 19 18 18 18 18 18 18 18 18 18 18 18 18 18 19 19 19 19 19 19 19 19 18 18 18 18 18 18 18 18 18 19 19
23 23 22 22 21 20 20 19 19 19 19 19 19 18 18 18 18 19 18 18 18 18 18 18 19 19 19 19 19 19 19 18 18 18 17 17 18 18 18 18 18 18 18
24 23 23 22 22 21 20 20 19 19 19 19 19 19 19 19 19 19 19 19 18 19 19 19 19 19 19 19 19 19 19 18 18 17 17 17 17 17 17 17 17 18 18
25 24 23 23 22 22 21 20 20 19 19 19 19 19 19 19 19 19 19 19 19 19 19 19 19 19 19 18 18 18 18 18 18 17 17 17 17 17 17 17 17 17 17
25 24 24 23 22 22 22 21 20 20 19 19 19 19 19 19 19 19 19 19 19 19 19 19 19 19 18 18 18 18 18 18 18 18 18 17 17 17 17 17 17 17 17
24 24 24 23 23 22 22 21 20 20 20 19 19 19 19 19 19 19 19 19 19 19 18 18 18 18 18 18 18 18 18 18 18 18 18 18 17 17 17 17 17 17 17
23 23 23 23 23 22 22 21 20 20 20 19 19 19 19 19 19 19 19 18 18 18 18 18 18 18 18 18 18 18 18 18 18 18 18 18 18 17 17 17 17 17 17
21 22 22 23 22 22 21 21 20 20 19 19 19 19 19 19 19 19 18 18 18 18 18 18 18 17 17 17 17 18 18 18 18 18 18 18 18 18 17 17 17 17 17
20 20 21 21 22 22 21 21 20 20 19 19 19 18 18 18 18 18 18 18 18 18 17 17 17 17 17 17 17 17 17 18 18 18 18 18 18 18 18 17 17 17 17
18 19 19 20 21 21 21 21 20 19 19 19 19 18 18 18 18 18 18 18 18 17 17 17 17 17 17 17 17 17 16 17 18 18 18 18 18 18 18 17 17 17 17
17 17 18 19 20 20 21 21 20 19 19 19 19 18 18 18 18 18 18 17 17 17 17 17 17 17 17 17 17 17 16 17 17 17 18 18 18 18 17 17 17 17 17
16 16 17 18 18 19 20 20 20 19 19 19 18 18 18 18 17 17 17 17 17 17 17 17 17 16 16 16 16 16 16 16 16 16 17 17 17 17 17 17 17 17 17
15 16 16 17 17 18 19 19 19 19 18 18 18 18 17 17 17 17 17 17 17 17 17 16 16 16 16 16 16 16 16 16 16 16 16 16 17 17 17 17 17 17 16
Wind_Speed
12 15 17 15 14 13 13 13 13 13 13 12 12 12 12 11 11 11 10 10 10 9 9 8 7 7 7 7 7 7 7 6 5 4 4 5 6 6 7 9 6 8 8
17 18 17 16 15 14 13 12 12 12 12 12 12 12 11 11 11 10 10 10 9 9 8 8 8 7 7 8 8 8 7 5 3 2 2 4 6 7 8 11 12 9 9
18 18 17 16 15 14 13 12 11 11 11 12 12 11 11 10 10 10 9 9 9 9 8 8 8 8 8 8 8 7 6 4 1 1 2 2 7 8 8 10 11 11 10
18 17 16 16 15 13 12 11 11 11 11 11 12 11 11 10 10 9 9 9 9 9 8 8 8 8 8 7 7 6 5 2 1 3 3 5 6 8 8 9 10 10 10
16 16 18 16 14 13 11 10 10 11 11 11 11 11 10 10 10 10 10 10 10 9 9 8 8 7 7 7 6 5 4 1 2 4 11 10 9 8 8 9 9 9 9
16 17 18 16 14 12 11 10 10 11 11 11 10 10 10 9 9 9 9 10 10 10 9 9 8 7 6 6 6 5 3 1 1 8 11 10 8 7 8 8 7 8 8
16 17 17 15 14 12 11 10 10 10 11 10 10 9 9 9 9 9 9 9 9 9 8 8 7 7 7 7 6 4 2 1 1 9 11 10 7 6 7 7 7 7 7
16 16 17 15 13 12 11 11 10 10 10 10 9 9 8 8 8 9 10 10 9 8 7 6 6 6 7 7 5 3 0 4 4 10 12 10 6 6 6 6 6 6 6
16 15 15 15 13 12 11 11 11 10 10 10 9 9 8 8 8 9 10 9 8 7 6 5 4 5 5 5 3 0 2 5 1 9 12 9 6 6 6 6 6 6 5
15 15 14 15 15 13 12 12 11 11 10 10 10 9 9 8 8 9 10 9 8 6 5 3 2 2 4 4 4 3 4 7 3 13 13 10 8 6 6 6 6 6 5
12 13 14 14 14 14 14 14 13 11 10 10 10 10 10 10 11 10 10 11 8 6 5 3 3 4 5 7 7 7 7 9 3 13 12 11 9 6 5 5 5 5 5
11 12 12 12 12 12 11 13 12 12 11 11 11 12 11 11 10 10 14 11 9 7 6 6 7 8 9 9 10 9 9 10 4 13 11 11 8 6 5 4 4 4 4
10 10 11 12 11 10 6 10 8 8 10 11 10 13 12 10 9 13 10 9 9 9 9 9 10 11 12 11 11 10 5 2 8 12 11 9 6 4 3 3 3 3 3
11 10 10 11 11 10 9 7 6 6 6 7 10 13 11 5 5 8 9 12 11 10 10 9 9 12 9 9 6 4 7 3 8 12 10 8 6 3 2 2 2 2 2
11 11 10 10 11 10 9 7 7 6 7 9 11 13 11 4 5 4 4 8 9 10 6 4 5 2 2 5 5 6 5 5 7 12 10 9 6 4 2 3 2 2 2
11 12 11 10 10 11 10 8 7 6 7 7 8 11 13 8 4 4 4 3 3 5 8 6 3 3 1 3 4 4 4 4 6 11 12 10 7 6 4 3 3 2 2
9 10 11 11 10 11 11 10 7 6 8 5 6 10 11 10 6 4 4 5 3 5 6 4 1 3 3 3 2 0 3 4 2 8 12 12 10 7 6 5 4 3 3
1 5 10 11 10 9 8 9 6 6 6 5 7 8 9 10 9 5 2 4 4 4 2 2 2 2 2 2 2 2 3 2 3 3 8 12 13 10 8 6 6 5 5
6 3 5 9 9 8 8 7 6 6 6 5 6 6 6 7 9 6 3 2 3 2 1 2 1 1 1 1 0 1 1 2 2 3 4 9 12 14 12 9 8 7 6
9 7 4 5 8 9 8 7 5 5 6 4 4 5 6 4 6 6 4 2 2 3 1 1 0 1 1 1 3 2 2 1 2 3 1 4 8 13 15 13 11 9 8
10 10 8 4 6 6 6 7 7 6 5 5 4 5 6 3 4 5 5 3 3 3 2 1 1 1 1 2 2 3 3 4 5 4 2 2 3 9 14 14 13 12 9
11 11 11 9 5 6 6 7 7 8 6 6 5 4 6 5 4 4 5 4 3 2 2 2 1 0 1 2 1 1 3 4 4 3 3 3 3 4 5 10 13 13 13
12 12 12 12 10 7 7 6 7 7 6 6 5 4 3 4 4 3 3 4 4 4 4 4 4 5 4 4 4 3 3 4 2 4 5 5 4 3 4 3 7 14 14
12 12 14 14 12 8 5 7 9 8 7 6 6 5 5 4 4 4 3 3 4 4 5 6 6 5 6 6 5 5 5 4 3 2 3 3 5 5 4 2 1 2 11
12 12 12 13 12 9 5 4 8 8 7 6 7 7 5 4 3 3 2 2 3 3 5 6 5 5 6 6 5 4 4 3 4 4 3 4 2 2 3 2 2 1 5
11 11 11 11 11 10 6 1 4 7 8 8 8 8 5 4 3 2 1 0 2 2 3 4 4 5 5 6 5 4 3 3 3 3 4 4 3 3 3 3 3 3 4
Wind_Direction
128 130 139 135 131 126 121 117 115 114 112 109 105 101 97 95 94 93 91 90 90 91 92 93 92 96 99 101 99 93 93 93 93 88 79 70 64 58 44 32 42 86 79
128 131 139 137 134 130 125 122 119 118 116 113 108 103 100 96 94 93 92 91 90 91 90 92 93 95 101 110 114 112 111 114 109 114 127 101 82 70 60 57 65 74 75
126 133 140 140 137 133 130 126 124 123 121 118 113 108 105 101 97 96 94 92 92 92 91 92 95 98 102 110 118 120 119 120 113 305 299 98 101 82 74 71 72 74 75
129 139 142 143 141 138 136 133 130 128 126 121 117 113 110 106 102 97 94 91 91 93 94 93 94 98 102 108 116 122 122 127 318 333 45 97 91 87 82 77 77 77 76
133 139 137 147 146 145 143 141 139 135 131 125 121 118 115 111 106 100 95 90 87 87 91 93 94 98 105 113 119 125 134 151 321 54 91 101 93 91 86 81 81 80 77
134 132 140 150 150 151 151 149 145 141 137 133 129 125 122 118 114 108 101 95 89 85 84 86 88 95 107 116 122 130 145 173 8 85 92 100 94 92 92 89 86 82 78
137 134 145 152 156 158 158 155 152 150 147 144 140 135 131 126 123 120 113 103 95 88 83 81 85 93 107 114 117 127 154 229 157 107 99 99 100 95 93 95 92 87 81
138 139 145 155 161 164 163 162 161 159 157 154 150 144 139 134 132 130 124 117 106 97 88 80 82 92 105 110 107 109 245 295 161 126 111 109 110 97 93 94 98 96 91
141 141 147 160 166 170 170 170 170 169 166 163 158 151 146 143 140 137 133 127 118 110 100 91 88 97 110 116 114 137 301 325 2 123 112 102 100 96 94 93 94 97 100
147 149 157 164 169 172 175 177 176 176 174 170 165 160 156 155 155 152 149 138 133 128 121 118 120 132 141 151 179 238 287 304 272 108 105 98 91 91 94 96 94 94 100
158 158 164 167 170 172 174 174 176 180 180 175 173 172 173 182 179 178 159 146 151 152 157 173 200 210 201 199 212 230 258 261 198 106 102 104 98 96 94 93 91 92 97
167 166 167 168 164 168 177 160 176 182 178 191 186 181 199 212 198 162 143 154 163 174 191 212 226 231 221 212 220 226 247 251 130 107 108 110 107 107 104 94 87 85 89
173 172 167 168 165 163 153 154 176 178 177 199 194 189 204 210 166 141 156 159 179 193 209 213 226 230 219 209 202 204 213 21 86 107 115 113 113 119 124 114 100 87 83
173 176 173 168 167 168 160 162 169 171 181 189 195 203 201 204 192 170 169 175 185 201 213 198 221 227 217 189 207 177 137 84 101 113 120 122 122 127 148 143 124 105 91
169 174 182 174 173 172 162 162 176 177 182 192 192 206 200 188 210 167 180 172 186 187 170 246 253 192 54 52 30 45 74 89 98 115 129 136 134 134 149 166 154 140 132
169 178 178 180 178 171 166 178 180 173 178 193 186 204 195 186 204 147 194 145 209 167 170 221 230 106 68 66 44 39 23 74 119 130 142 145 144 139 137 144 148 138 140
171 175 172 179 185 182 177 181 175 167 176 188 184 212 197 183 189 156 201 154 207 186 187 227 200 118 114 112 144 37 75 22 14 129 145 154 152 140 130 126 125 124 124
324 185 171 179 185 185 174 171 168 173 169 174 181 213 210 182 182 166 179 147 186 175 184 118 40 77 125 183 185 186 158 151 260 140 162 157 155 146 137 132 130 125 121
328 299 181 179 182 181 171 170 169 169 161 168 179 191 217 190 179 148 134 139 163 131 130 132 176 175 200 198 178 149 274 183 178 238 203 153 149 151 146 142 138 133 131
328 313 272 197 187 184 169 172 167 164 164 164 167 173 203 192 157 133 126 140 127 119 87 26 94 65 17 327 285 251 216 254 235 249 282 138 162 159 156 158 156 151 146
336 325 311 259 209 196 174 172 167 168 162 158 163 170 181 176 130 116 125 122 96 107 124 275 348 323 298 314 315 324 306 258 252 207 210 251 209 156 159 167 172 164 157
349 339 326 316 271 218 198 188 177 168 168 162 167 161 161 168 161 143 141 144 144 147 180 235 251 288 293 275 233 257 307 316 289 250 202 211 267 162 186 184 174 167 167
348 345 335 322 308 267 210 189 186 168 162 159 161 149 140 146 149 151 152 159 174 177 197 216 221 214 226 254 249 205 196 234 281 292 237 201 217 207 204 216 185 178 168
349 346 339 333 323 307 249 194 179 174 171 168 160 152 151 151 153 159 169 175 193 195 200 215 220 215 215 231 249 243 225 209 186 282 303 244 207 205 201 202 227 166 154
354 349 344 339 335 332 318 202 184 179 167 157 147 144 142 137 134 152 174 195 216 207 213 223 228 213 212 221 230 239 246 256 232 212 261 296 286 210 185 193 172 217 154
1 356 353 352 353 353 357 21 170 166 152 147 137 135 124 112 94 80 85 270 273 243 229 228 216 215 219 226 234 231 225 228 234 225 226 248 267 264 204 192 181 186 169
Height
1514 1516 1518 1520 1523 1525 1528 1530 1531 1533 1534 1535 1536 1537 1539 1540 1541 1542 1543 1544 1545 1546 1547 1548 1549 1550 1551 1552 1553 1555 1556 1557 1558 1558 1559 1559 1558 1558 1557 1557 1556 1556 1556
1514 1516 1519 1521 1524 1526 1529 1531 1533 1534 1536 1537 1538 1539 1540 1541 1542 1543 1544 1545 1546 1547 1548 1549 1550 1551 1552 1553 1554 1555 1556 1558 1559 1559 1560 1560 1559 1559 1558 1558 1558 1558 1558
1514 1517 1520 1522 1525 1528 1530 1532 1534 1535 1537 1538 1539 1540 1541 1542 1543 1544 1545 1546 1547 1548 1548 1549 1550 1551 1552 1553 1554 1556 1557 1558 1559 1560 1560 1561 1560 1560 1560 1559 1559 1559 1559
1516 1518 1521 1524 1526 1529 1531 1533 1535 1536 1538 1539 1540 1541 1542 1543 1544 1545 1546 1547 1548 1548 1549 1550 1551 1551 1552 1553 1555 1556 1558 1559 1560 1560 1560 1559 1560 1561 1561 1560 1560 1560 1560
1518 1520 1522 1525 1527 1530 1532 1534 1536 1537 1539 1540 1541 1542 1544 1545 1546 1546 1547 1548 1549 1549 1550 1551 1551 1552 1553 1554 1555 1556 1558 1559 1560 1561 1560 1560 1561 1562 1561 1561 1561 1561 1561
1519 1521 1524 1526 1529 1531 1533 1535 1537 1538 1539 1541 1542 1543 1545 1545 1546 1547 1548 1548 1549 1550 1551 1551 1552 1553 1554 1555 1556 1557 1558 1560 1560 1560 1560 1561 1562 1562 1562 1562 1562 1562 1562
1521 1522 1525 1527 1530 1532 1534 1535 1537 1539 1540 1541 1543 1544 1545 1546 1547 1547 1548 1549 1550 1551 1551 1552 1553 1553 1554 1555 1556 1558 1559 1560 1560 1560 1560 1561 1562 1562 1562 1562 1562 1562 1562
1522 1523 1525 1528 1530 1532 1534 1536 1537 1539 1541 1542 1543 1545 1546 1546 1547 1548 1548 1549 1550 1551 1552 1553 1554 1554 1555 1556 1557 1558 1559 1560 1561 1561 1561 1561 1562 1562 1563 1562 1563 1563 1563
1523 1524 1526 1528 1530 1532 1534 1536 1538 1539 1541 1542 1543 1545 1546 1547 1548 1548 1549 1549 1550 1551 1553 1553 1554 1555 1556 1557 1558 1559 1560 1561 1561 1561 1561 1561 1562 1562 1562 1563 1563 1563 1564
1524 1525 1526 1528 1530 1532 1534 1536 1538 1539 1541 1542 1544 1545 1546 1547 1548 1549 1549 1550 1551 1552 1553 1554 1555 1556 1557 1558 1559 1560 1561 1561 1562 1561 1561 1562 1562 1562 1562 1563 1563 1563 1564
1524 1526 1527 1529 1531 1532 1534 1536 1537 1539 1541 1542 1543 1545 1546 1547 1548 1549 1549 1550 1551 1552 1553 1554 1555 1557 1558 1559 1560 1561 1562 1562 1563 1561 1562 1562 1562 1562 1562 1563 1563 1563 1564
1524 1526 1528 1530 1531 1533 1535 1536 1537 1539 1540 1542 1543 1545 1546 1548 1549 1550 1550 1551 1552 1552 1554 1555 1556 1557 1558 1559 1561 1562 1562 1563 1564 1561 1562 1562 1562 1562 1562 1562 1563 1563 1564
1523 1525 1527 1529 1531 1532 1534 1535 1537 1538 1540 1542 1544 1545 1547 1548 1550 1550 1551 1551 1551 1552 1553 1555 1557 1557 1558 1559 1561 1562 1563 1563 1563 1561 1561 1561 1561 1561 1561 1562 1562 1563 1563
1521 1524 1526 1528 1530 1531 1533 1534 1536 1537 1539 1541 1543 1545 1546 1548 1550 1550 1550 1550 1551 1552 1553 1556 1557 1558 1560 1562 1562 1563 1562 1563 1562 1561 1561 1561 1560 1560 1561 1561 1562 1562 1563
1519 1522 1525 1527 1528 1530 1531 1533 1534 1536 1537 1539 1541 1543 1546 1548 1549 1551 1551 1551 1552 1553 1555 1556 1557 1559 1560 1561 1562 1562 1562 1563 1563 1561 1561 1560 1560 1560 1560 1561 1561 1562 1562
1517 1520 1522 1525 1527 1528 1529 1531 1533 1535 1536 1539 1540 1542 1545 1546 1548 1550 1551 1552 1553 1555 1555 1556 1557 1558 1559 1560 1561 1562 1562 1563 1562 1561 1561 1560 1560 1560 1560 1560 1561 1561 1562
1516 1518 1520 1522 1524 1526 1527 1529 1531 1533 1534 1537 1539 1541 1543 1545 1547 1548 1550 1550 1552 1554 1555 1556 1557 1558 1559 1559 1560 1561 1562 1562 1562 1561 1560 1560 1560 1560 1560 1560 1561 1561 1561
1514 1516 1517 1519 1521 1524 1526 1527 1529 1531 1532 1534 1536 1539 1542 1543 1545 1547 1549 1549 1551 1553 1554 1555 1556 1557 1558 1559 1560 1560 1561 1561 1561 1561 1560 1559 1559 1559 1560 1560 1560 1560 1561
1512 1513 1515 1516 1518 1520 1522 1524 1527 1528 1530 1532 1534 1536 1539 1541 1543 1544 1546 1548 1549 1551 1552 1554 1555 1556 1557 1558 1559 1559 1560 1561 1561 1561 1561 1560 1559 1559 1559 1559 1559 1559 1560
1511 1512 1513 1513 1515 1517 1519 1521 1523 1525 1527 1529 1531 1533 1536 1539 1541 1542 1543 1546 1547 1549 1550 1552 1553 1554 1555 1556 1558 1558 1559 1559 1560 1560 1561 1560 1559 1558 1558 1559 1559 1559 1559
1509 1509 1510 1511 1511 1513 1514 1515 1517 1520 1522 1525 1527 1530 1532 1535 1537 1538 1540 1543 1544 1546 1548 1550 1551 1552 1554 1555 1556 1556 1557 1557 1558 1558 1559 1559 1560 1558 1558 1558 1558 1559 1559
1508 1507 1506 1507 1508 1508 1509 1510 1511 1514 1517 1520 1523 1526 1528 1531 1533 1535 1537 1539 1541 1543 1545 1547 1548 1549 1551 1552 1553 1554 1555 1556 1555 1556 1556 1557 1558 1558 1558 1558 1557 1557 1558
1507 1505 1504 1503 1503 1504 1504 1505 1507 1508 1511 1515 1518 1521 1524 1527 1529 1531 1533 1535 1538 1540 1542 1544 1545 1546 1547 1549 1550 1552 1552 1552 1553 1553 1554 1554 1555 1556 1556 1557 1558 1557 1556
1506 1503 1501 1499 1498 1498 1499 1499 1500 1501 1504 1507 1512 1515 1519 1522 1525 1527 1530 1532 1534 1536 1538 1540 1541 1542 1543 1544 1546 1548 1549 1550 1551 1550 1551 1552 1553 1554 1554 1555 1556 1557 1556
1504 1501 1499 1496 1494 1494 1494 1494 1495 1496 1498 1503 1507 1510 1514 1517 1520 1523 1526 1528 1530 1532 1534 1536 1537 1538 1540 1541 1542 1544 1545 1546 1547 1548 1549 1550 1550 1551 1552 1552 1553 1554 1555
1502 1499 1496 1493 1491 1490 1490 1490 1491 1493 1495 1499 1502 1505 1509 1512 1515 1518 1522 1524 1527 1528 1530 1532 1534 1535 1537 1538 1539 1540 1541 1542 1543 1544 1545 1546 1547 1548 1548 1549 1550 1551 1552